Location: Wildlife_Club
(35.6000°N, 81.4330°W)
Time: 13:40:57
(UTC-04:00)

Transit 2A Rocket - Visible Passes

Search period start: 17 June 2019 00:00
Search period end: 27 June 2019 00:00
Orbit: 586 x 917 km, 66.7° (Epoch: 16 June)

Date Brightness Start Highest point End Pass type
(mag) Time Alt. Az. Time Alt. Az. Time Alt. Az.
17 Jun 5.0 22:04:17 10° NNW 22:09:22 69° WSW 22:12:32 20° SSE visible
18 Jun 5.0 21:21:45 10° NNW 21:26:53 63° ENE 21:31:26 10° SE visible
18 Jun 7.3 23:07:02 10° W 23:08:39 12° WSW 23:10:14 10° WSW visible
19 Jun 6.7 22:22:38 10° NW 22:26:31 23° WSW 22:30:09 10° SSW visible
20 Jun 5.7 21:39:29 10° NW 21:44:16 44° WSW 21:48:38 10° S visible
22 Jun 7.2 21:58:37 10° WNW 22:01:16 15° WSW 22:03:48 10° SW visible
23 Jun 6.6 21:14:53 10° NW 21:19:06 28° WSW 21:23:01 10° SSW visible
